This is the latest recevied weather packets stored in our database for station/object K7AEL. If no packets are shown the sender has not sent any weather packets the latest 10 day(s).
| Time | Temp. | Humidity | Pressure | Rain* | Wind** | Luminosity | Snow |
|---|---|---|---|---|---|---|---|
| 1777760970 | 33.89° C | 14% | 1012.3 hPa | 0 mm | - | 464 W/m² | - |
| 1777760667 | 33.33° C | 13% | 1012.5 hPa | 0 mm | - | 486 W/m² | - |
| 1777760362 | 33.89° C | 13% | 1012.6 hPa | 0 mm | - | 482 W/m² | - |
| 1777760059 | 33.89° C | 13% | 1012.6 hPa | 0 mm | - | 480 W/m² | - |
| 1777759757 | 33.33° C | 13% | 1012.5 hPa | 0 mm | - | 430 W/m² | - |
| 1777759452 | 33.33° C | 13% | 1012.8 hPa | 0 mm | - | 530 W/m² | - |
| 1777759149 | 32.78° C | 14% | 1012.8 hPa | 0 mm | - | 551 W/m² | - |
| 1777758847 | 32.78° C | 14% | 1013 hPa | 0 mm | - | 565 W/m² | - |
| 1777758543 | 32.78° C | 14% | 1012.8 hPa | 0 mm | - | 575 W/m² | - |
| 1777758240 | 32.78° C | 15% | 1013.3 hPa | 0 mm | - | 578 W/m² | - |
| 1777757937 | 32.78° C | 14% | 1013.5 hPa | 0 mm | - | 514 W/m² | - |
| 1777757634 | 32.22° C | 15% | 1013.5 hPa | 0 mm | - | 582 W/m² | - |
| 1777757333 | 32.22° C | 14% | 1013.6 hPa | 0 mm | - | 610 W/m² | - |
| 1777757031 | 32.22° C | 14% | 1013.5 hPa | 0 mm | - | 613 W/m² | - |
| 1777756728 | 32.78° C | 14% | 1013.6 hPa | 0 mm | - | 600 W/m² | - |
| 1777756121 | 31.67° C | 16% | 1013.5 hPa | 0 mm | - | 676 W/m² | - |
| 1777754303 | 32.78° C | 18% | 1014.1 hPa | 0 mm | - | 717 W/m² | - |
| 1777749455 | 31.67° C | 21% | 1015 hPa | 0 mm | - | 669 W/m² | - |
| 1777748548 | 30.56° C | 21% | 1015.1 hPa | 0 mm | - | 757 W/m² | - |
| 1777745817 | 29.44° C | 24% | 1015.8 hPa | 0 mm | - | 726 W/m² | - |
| 1777745212 | 29.44° C | 25% | 1016.1 hPa | 0 mm | - | 714 W/m² | - |
| 1777742791 | 28.33° C | 28% | 1016.3 hPa | 0 mm | - | 656 W/m² | - |
| 1777742488 | 27.78° C | 29% | 1016.4 hPa | 0 mm | - | 645 W/m² | - |
| 1777742183 | 27.22° C | 29% | 1016.5 hPa | 0 mm | - | 635 W/m² | - |
| 1777741577 | 27.78° C | 29% | 1016.5 hPa | 0 mm | - | 615 W/m² | - |
* Rain latest hour (hover to see other rain measurements)
** Current wind speed in m/s (hover to see current wind gust speed)